マクノート彗星

C/2013 E1 ( McNaught )

English version
Home page
Updated on June 11, 2016

---------------------------------------------------------------------

・ プロフィール

発見日 2013年3月4日
発見光度 18.5等
発見者 Robert H. McNaught (Siding Spring)

・ 写真集

・ 軌道要素

Epoch 2013 May 28.0 TT = JDT 2456440.5
T 2013 June 12.11591 TT                                 MPC
q   7.7815931            (2000.0)            P               Q
z  -0.0002963      Peri.  311.42516     -0.96221181     -0.07785063
 +/-0.0000020      Node   134.02826     +0.09917330     +0.79225601
e   1.0023058      Incl.  158.72056     -0.25360027     +0.60520219
From 162 observations 2012 Apr. 2-2014 Mar. 30, mean residual 0".5.

・ 光度変化

        m1 = 5.3 + 5 logΔ + 10.0 log r

---------------------------------------------------------------------

軌道要素はM.P.E.C. 2014-S34に掲載されたものです。
光度グラフはComet for Windowsで作成したものです。

---------------------------------------------------------------------

Copyright(C) Seiichi Yoshida (comet@aerith.net). All rights reserved.